Regional Weather Roundup
Issued by NWS

Home | Current Version | Previous Version | Text Only | Print | Product List | Glossary Off
Versions: 1 2 3 4 5 6 7 8 9 10 11 12 13 14 15 16 17 18 19 20 21 22 23 24 25 26 27 28 29 30 31 32 33 34 35 36 37 38 39 40 41 42 43 44 45 46 47 48 49 50

000
ASUS43 KLSX 181107
RWRMO

WEATHER SUMMARY FOR MISSOURI
NATIONAL WEATHER SERVICE SPRINGFIELD MO
500 AM CST THU DEC 18 2014

NOTE: "FAIR" INDICATES FEW OR NO CLOUDS BELOW 12,000 FEET WITH NO
       SIGNIFICANT WEATHER AND/OR OBSTRUCTIONS TO VISIBILITY.
       CURRENT SKY AND/OR WEATHER CONDITIONS ARE NOT AVAILABLE FOR
       CHILLICOTHE AND FARMINGTON.

MOZ001>031-035>038-043-044-053-054-181200-
...NORTHERN AND WESTERN MISSOURI...

CITY           SKY/WX    TMP DP  RH WIND       PRES   REMARKS
KANSAS CTY INT LGT SNOW  28  26  92 E8        30.21F VSB 1   WCI  20
KANSAS C DTWN  LGT SNOW  29  27  92 E7        30.22S FOG     WCI  22
LEE`S SUMMIT   LGT SNOW  29  26  89 NE7       30.21S FOG     WCI  22
ST JOSEPH      LGT SNOW  28  26  92 SE5       30.23F FOG     WCI  23
CHILLICOTHE      N/A     27  25  92 E5        30.26F WCI  22
KIRKSVILLE     LGT SNOW  26  22  84 E3        30.27R FOG

$$
MOZ066>068-077>081-088>096-101>105-181200-
...SOUTHWEST MISSOURI...

CITY           SKY/WX    TMP DP  RH WIND       PRES   REMARKS
SPRINGFIELD    MIX PCPN  33  32  96 SE7       30.15F FOG     WCI  27
JOPLIN         LGT RAIN  34  33  96 NE5       30.16S FOG     WCI  30

$$
MOZ032>034-039>042-045>050-055>058-069>072-181200-
...CENTRAL MISSOURI...

CITY           SKY/WX    TMP DP  RH WIND       PRES   REMARKS
COLUMBIA       LGT SNOW  29  27  92 E6        30.24R FOG     WCI  23
JEFFERSON CITY LGT SNOW  31  27  85 CALM      30.26S FOG
ROLLA          LGT SNOW  30  28  92 NE6       30.19F FOG     WCI  24
SEDALIA        LGT SNOW  31  29  92 E6        30.23F FOG     WCI  25
WHITEMAN AFB   LGT SNOW  29  28  94 NE7       30.21F FOG     WCI  22
WARRENSBURG    CLOUDY    30  28  93 NE7       30.22F FOG     WCI  23
OSAGE BEACH    CLOUDY    30  28  93 NE6       30.22R WCI  24

$$
MOZ051-052-059>065-181200-
...EAST CENTRAL MISSOURI...

CITY           SKY/WX    TMP DP  RH WIND       PRES   REMARKS
ST LOUIS INTL  FLURRIES  31  23  72 NE5       30.27F WCI  26
SPIRIT OF STL  CLOUDY   N/A N/A N/A NE7       30.26F
ST CHARLES     CLOUDY    29  24  82 NE7       30.27F WCI  22

$$
MOZ072>076-082>087-097>100-106>115-181200-
...SOUTH CENTRAL AND SOUTHEAST MISSOURI...

CITY           SKY/WX    TMP DP  RH WIND       PRES   REMARKS
CAPE GIRARDEAU CLOUDY    33  32  96 NE5       30.27R FOG     WCI  29
FARMINGTON     CLOUDY    32  30  93 CALM      30.24S
POPLAR BLUFF   LGT RAIN  34  31  88 NE5       30.23F FOG     WCI  30
WEST PLAINS    CLOUDY    33  31  92 E8        30.18F FOG     WCI  26

$$


USA.gov is the U.S. government's official web portal to all federal, state and local government web resources and services.